Overview Statistics Trail Chart Weather Telemetry Raw packets
 

This is the latest recevied weather packets stored in our database for station/object W7BTL. If no packets are shown the sender has not sent any weather packets the latest 10 day(s).

<< 55 56 57 58 59 60 61 >>
Time Temp. Humidity Pressure Rain* Wind** Luminosity Snow
1788283594 25.56° C 59% 1015.4 hPa 0 mm - 732 W/m² -
1788283292 25.56° C 62% 1015.5 hPa 0 mm - 714 W/m² -
1788282992 25° C 62% 1015.4 hPa 0 mm - 696 W/m² -
1788282691 24.44° C 63% 1015.2 hPa 0 mm - 673 W/m² -
1788282391 24.44° C 63% 1015.3 hPa 0 mm - 648 W/m² -
1788282086 23.89° C 64% 1015.3 hPa 0 mm - 631 W/m² -
1788281785 24.44° C 64% 1015.4 hPa 0 mm - 608 W/m² -
1788281480 25° C 62% 1015.4 hPa 0 mm - 603 W/m² -
1788281176 25° C 62% 1015.4 hPa 0 mm - 591 W/m² -
1788280870 25° C 62% 1015.3 hPa 0 mm - 569 W/m² -
1788280566 25.56° C 63% 1015.2 hPa 0 mm - 567 W/m² -
1788280265 25° C 63% 1015.2 hPa 0 mm - 514 W/m² -
1788279960 25° C 63% 1015.4 hPa 0 mm - 501 W/m² -
1788279660 24.44° C 64% 1015.4 hPa 0 mm - 482 W/m² -
1788279359 24.44° C 64% 1015.5 hPa 0 mm - 469 W/m² -
1788279059 23.89° C 66% 1015.5 hPa 0 mm - 431 W/m² -
1788278755 23.33° C 69% 1015.3 hPa 0 mm - 389 W/m² -
1788278450 22.78° C 70% 1015.2 hPa 0 mm - 382 W/m² -
1788278149 22.78° C 70% 1015.1 hPa 0 mm - 365 W/m² -
1788277845 21.67° C 73% 1015.3 hPa 0 mm - 349 W/m² -
1788277544 21.11° C 77% 1015.3 hPa 0 mm - 339 W/m² -
1788277239 21.11° C 76% 1015.3 hPa 0 mm - 105 W/m² -
1788276946 21.67° C 74% 1015.4 hPa 0 mm - 94 W/m² -
1788276634 21.67° C 74% 1015.3 hPa 0 mm - 113 W/m² -
1788276335 21.67° C 74% 1015.1 hPa 0 mm - 277 W/m² -

* Rain latest hour (hover to see other rain measurements)
** Current wind speed in m/s (hover to see current wind gust speed)